Satellite-Ground Cal/Val Site Overpasses Predictions

Prediction of Satellite NPP Overpassing Cal/Val Site: Antarctic Dome C

Ground Cal/Val Site Location: Latitude: -75.10, Longitude: 123.35; Satellite-Ground Site NADIR distance within 100 km.

Table of predicted overpasses for the next 14.0 days since TLE Epoch: 6/12/2020
Interval Starting Time Ending Time Minimum Distance Time Minimum Distance (km)
1 06/14/2020 14:54:28 06/14/2020 14:54:56 06/14/2020 14:54:42 20.37
2 06/15/2020 14:35:45 06/15/2020 14:35:59 06/15/2020 14:35:52 86.53
3 06/16/2020 07:37:17 06/16/2020 07:37:45 06/16/2020 07:37:31 33.25
4 06/17/2020 07:18:31 06/17/2020 07:18:50 06/17/2020 07:18:40 76.94
5 06/19/2020 15:00:45 06/19/2020 15:01:08 06/19/2020 15:00:57 57.26
6 06/20/2020 14:41:55 06/20/2020 14:42:20 06/20/2020 14:42:07 51.89
7 06/21/2020 07:43:35 06/21/2020 07:43:57 06/21/2020 07:43:46 68.29
8 06/22/2020 07:24:42 06/22/2020 07:25:09 06/22/2020 07:24:56 39.78
9 06/24/2020 15:07:08 06/24/2020 15:07:16 06/24/2020 15:07:12 94.62


NCC Satellite Cal/Val Overpasses Prediction Service
